Regional Weather Roundup
Issued by NWS

Home | Current Version | Previous Version | Text Only | Print | Product List | Glossary On
Versions: 1 2 3 4 5 6 7 8 9 10 11 12 13 14 15 16 17 18 19 20 21 22 23 24 25 26 27 28 29 30 31 32 33 34 35 36 37 38 39 40 41 42 43 44 45 46 47 48 49 50
000
ASCA42 TJSJ 311011
RWRPR
PUERTO RICO/U.S. VIRGIN ISLANDS HOURLY WEATHER ROUNDUP
NATIONAL WEATHER SERVICE SAN JUAN PR
600 AM AST THU JUL 31 2014

PRZ001-004-311100-
PUERTO RICO

CITY           SKY/WX    TMP DP  RH WIND       PRES   REMARKS
SAN JUAN LMM   PTCLDY    79  73  83 CALM      30.00R
CEIBA          CLEAR     75  73  94 NW3       30.02R
$$

PRZ006-007-311100-
U.S. VIRGIN ISLANDS

CITY           SKY/WX    TMP DP  RH WIND       PRES   REMARKS
CHARLOTTE AMA  CLEAR     81  77  89 E7        30.00R
CHRISTIANSTED  MOCLDY    81  75  83 E12       30.00S
$$

HOURLY WEATHER ROUNDUP FOR THE NEWS MEDIA

CITY           SKY/WX    TMP DP  RH WIND       PRES   REMARKS
MIAMI          MOCLDY    78  75  90 S3        29.97R
ORLANDO        CLEAR     77  75  93 CALM      29.94R
NEW YORK       PTCLDY    65  57  75 SW5       30.09R
NEWARK         PTCLDY    65  56  72 CALM      30.08R
CHICAGO        CLEAR     62  56  80 W5        30.02R
HARTFORD       CLEAR     56  55  97 CALM      30.09R
BOSTON         PTCLDY    62  57  83 S6        30.08R
DALLAS         CLOUDY    75  71  87 SE6       29.94F
PHILADELPHIA   PTCLDY    67  57  70 S6        30.09R



USA.gov is the U.S. government's official web portal to all federal, state and local government web resources and services.